This is the latest recevied weather packets stored in our database for station/object OK1TOM-6. If no packets are shown the sender has not sent any weather packets the latest 10 day(s).
| Time | Temp. | Humidity | Pressure | Rain* | Wind** | Luminosity | Snow |
|---|---|---|---|---|---|---|---|
| 1778179529 | 7.22° C | 97% | 1017.1 hPa | 0.25 mm | - | - | - |
| 1778178926 | 7.78° C | 97% | 1017 hPa | 0.25 mm | - | - | - |
| 1778178323 | 7.78° C | 97% | 1016.8 hPa | 0.25 mm | - | - | - |
| 1778177719 | 7.78° C | 97% | 1016.7 hPa | 0.25 mm | - | - | - |
| 1778177116 | 7.78° C | 97% | 1016.7 hPa | 0.25 mm | - | - | - |
| 1778176573 | 7.78° C | 97% | 1016.8 hPa | 0.25 mm | - | - | - |
| 1778175969 | 7.78° C | 97% | 1016.7 hPa | 0.51 mm | - | - | - |
| 1778175366 | 7.78° C | 97% | 1016.6 hPa | 1.78 mm | - | - | - |
| 1778174762 | 8.33° C | 97% | 1016.4 hPa | 2.29 mm | - | - | - |
| 1778174159 | 7.78° C | 97% | 1016.3 hPa | 2.29 mm | - | - | - |
| 1778173555 | 7.78° C | 97% | 1016.3 hPa | 2.29 mm | - | - | - |
| 1778172952 | 7.78° C | 96% | 1016.2 hPa | 2.29 mm | - | - | - |
| 1778172348 | 8.33° C | 96% | 1016.2 hPa | 2.03 mm | - | - | - |
| 1778171745 | 8.33° C | 95% | 1015.9 hPa | 1.27 mm | - | - | - |
| 1778171141 | 8.89° C | 96% | 1016 hPa | 0.51 mm | - | - | - |
| 1778170538 | 8.89° C | 95% | 1015.9 hPa | 0.51 mm | - | - | - |
| 1778169934 | 8.89° C | 95% | 1015.9 hPa | 0.51 mm | - | - | - |
| 1778169331 | 8.89° C | 95% | 1015.9 hPa | 0.51 mm | - | - | - |
| 1778168727 | 9.44° C | 94% | 1015.7 hPa | 0.51 mm | - | - | - |
| 1778168124 | 9.44° C | 94% | 1015.8 hPa | 0.25 mm | - | - | - |
| 1778167520 | 9.44° C | 93% | 1015.6 hPa | 0.51 mm | - | - | - |
| 1778166917 | 9.44° C | 92% | 1015.7 hPa | 0.25 mm | - | - | - |
| 1778166374 | 9.44° C | 92% | 1015.6 hPa | 0.25 mm | - | - | - |
| 1778165771 | 9.44° C | 92% | 1015.4 hPa | 0.51 mm | - | - | - |
| 1778165167 | 10° C | 92% | 1015.3 hPa | 1.02 mm | - | - | - |
* Rain latest hour (hover to see other rain measurements)
** Current wind speed in m/s (hover to see current wind gust speed)